| time (UTC) | temp C | wind direction | speed KPH | gust KPH | rain 1hr cm | rain 24hr cm | rain mn cm | humidity % | barometer mb |
| 20260906033940 | 8 | 0.0 | 0.0 | 0.00 | 0.00 | 0.00 | 85 | ||
| 20260906032946 | 8 | 0.0 | 0.0 | 0.00 | 0.00 | 0.00 | 85 | ||
| 20260906031954 | 8 | 0.0 | 0.0 | 0.00 | 0.00 | 0.00 | 85 | ||
| 20260906030940 | 8 | 0.0 | 0.0 | 0.00 | 0.00 | 0.00 | 85 | ||
| 20260906025947 | 8 | 0.0 | 0.0 | 0.00 | 0.00 | 0.00 | 86 | ||
| 20260906024943 | 8 | 0.0 | 0.0 | 0.00 | 0.00 | 0.00 | 85 | ||
| 20260906023946 | 8 | 0.0 | 0.0 | 0.00 | 0.00 | 0.00 | 85 | ||
| 20260906022954 | 8 | 0.0 | 0.0 | 0.00 | 0.00 | 0.00 | 85 | ||
| 20260906021945 | 8 | 0.0 | 0.0 | 0.00 | 0.00 | 0.00 | 85 | ||
| 20260906020955 | 8 | 0.0 | 0.0 | 0.00 | 0.00 | 0.00 | 85 | ||
| 20260906015948 | 8 | 0.0 | 0.0 | 0.00 | 0.00 | 0.00 | 85 | ||
| 20260906014946 | 7 | 0.0 | 0.0 | 0.00 | 0.00 | 0.00 | 85 | ||
| 20260906013950 | 7 | 0.0 | 0.0 | 0.00 | 0.00 | 0.00 | 85 | ||
| 20260906012940 | 7 | 0.0 | 0.0 | 0.00 | 0.00 | 0.00 | 85 | ||
| 20260906011956 | 7 | 0.0 | 0.0 | 0.00 | 0.00 | 0.00 | 85 | ||
| 20260906010941 | 7 | 0.0 | 0.0 | 0.00 | 0.00 | 0.00 | 85 | ||
| 20260906004942 | 7 | 0.0 | 0.0 | 0.00 | 0.00 | 0.00 | 85 | ||
| 20260906003957 | 7 | 0.0 | 0.0 | 0.00 | 0.00 | 0.00 | 85 | ||
| 20260906002948 | 7 | 0.0 | 0.0 | 0.00 | 0.00 | 0.00 | 85 | ||
| 20260905234941 | 7 | 0.0 | 0.0 | 0.00 | 0.00 | 0.00 | 84 | ||
| 20260905233943 | 7 | 0.0 | 0.0 | 0.00 | 0.00 | 0.00 | 84 | ||
| 20260905232946 | 8 | 0.0 | 0.0 | 0.00 | 0.00 | 0.00 | 84 | ||
| 20260905231940 | 7 | 0.0 | 0.0 | 0.00 | 0.00 | 0.00 | 84 | ||
| 20260905225943 | 8 | 0.0 | 0.0 | 0.00 | 0.00 | 0.00 | 84 | ||
| 20260905224940 | 8 | 0.0 | 0.0 | 0.00 | 0.00 | 0.00 | 84 | ||
| 20260905223940 | 8 | 0.0 | 0.0 | 0.00 | 0.00 | 0.00 | 84 | ||
| 20260905222951 | 8 | 0.0 | 0.0 | 0.00 | 0.00 | 0.00 | 84 | ||
| 20260905221942 | 8 | 0.0 | 0.0 | 0.00 | 0.00 | 0.00 | 84 | ||
| 20260905220940 | 8 | 0.0 | 0.0 | 0.00 | 0.00 | 0.00 | 84 | ||
| 20260905215950 | 8 | 0.0 | 0.0 | 0.00 | 0.00 | 0.00 | 83 | ||
| 20260905214945 | 8 | 0.0 | 0.0 | 0.00 | 0.00 | 0.00 | 83 | ||
| 20260905213943 | 8 | 0.0 | 0.0 | 0.00 | 0.00 | 0.00 | 83 | ||
| 20260905212950 | 9 | 0.0 | 0.0 | 0.00 | 0.00 | 0.00 | 83 | ||
| 20260905211941 | 9 | 0.0 | 0.0 | 0.00 | 0.00 | 0.00 | 84 | ||
| 20260905210940 | 9 | 0.0 | 0.0 | 0.00 | 0.00 | 0.00 | 83 | ||
| 20260905205944 | 9 | 0.0 | 0.0 | 0.00 | 0.00 | 0.00 | 83 | ||
| 20260905204945 | 10 | 0.0 | 0.0 | 0.00 | 0.00 | 0.00 | 83 | ||
| 20260905203941 | 10 | 0.0 | 0.0 | 0.00 | 0.00 | 0.00 | 83 | ||
| 20260905202946 | 9 | 0.0 | 0.0 | 0.00 | 0.00 | 0.00 | 83 | ||
| 20260905193940 | 10 | 0.0 | 0.0 | 0.00 | 0.00 | 0.00 | 79 | ||
| 20260905191944 | 11 | 0.0 | 0.0 | 0.00 | 0.00 | 0.00 | 78 | ||
| 20260905190942 | 11 | 0.0 | 0.0 | 0.00 | 0.00 | 0.00 | 77 | ||
| 20260905185949 | 11 | 0.0 | 0.0 | 0.00 | 0.00 | 0.00 | 75 | ||
| 20260905184940 | 12 | 0.0 | 0.0 | 0.00 | 0.00 | 0.00 | 76 | ||
| 20260905183942 | 13 | 0.0 | 0.0 | 0.00 | 0.00 | 0.00 | 76 | ||
| 20260905182949 | 13 | 0.0 | 0.0 | 0.00 | 0.00 | 0.00 | 72 | ||
| 20260905181942 | 14 | 0.0 | 0.0 | 0.00 | 0.00 | 0.00 | 71 | ||
| 20260905180940 | 15 | 0.0 | 0.0 | 0.00 | 0.00 | 0.00 | 68 | ||
| 20260905174942 | 16 | 0.0 | 0.0 | 0.00 | 0.00 | 0.00 | 63 | ||
| 20260905173943 | 17 | 0.0 | 0.0 | 0.00 | 0.00 | 0.00 | 62 | ||
| 20260905165953 | 20 | 0.0 | 0.0 | 0.00 | 0.00 | 0.00 | 51 | ||
| 20260905164943 | 20 | 0.0 | 0.0 | 0.00 | 0.00 | 0.00 | 51 | ||
| 20260905162938 | 21 | 0.0 | 0.0 | 0.00 | 0.00 | 0.00 | 49 | ||
| 20260905154938 | 23 | 0.0 | 0.0 | 0.00 | 0.00 | 0.00 | 50 | ||
| 20260905152938 | 23 | 0.0 | 0.0 | 0.00 | 0.00 | 0.00 | 51 | ||
| 20260905145941 | 23 | 0.0 | 0.0 | 0.00 | 0.00 | 0.00 | 49 | ||
| 20260905144938 | 25 | 0.0 | 0.0 | 0.00 | 0.00 | 0.00 | 48 | ||
| 20260905142938 | 22 | 0.0 | 0.0 | 0.00 | 0.00 | 0.00 | 52 | ||
| 20260905140938 | 25 | 0.0 | 0.0 | 0.00 | 0.00 | 0.00 | 47 | ||
| 20260905135138 | 23 | 0.0 | 0.0 | 0.00 | 0.00 | 0.00 | 48 | ||
| 20260905134940 | 23 | 0.0 | 0.0 | 0.00 | 0.00 | 0.00 | 48 | ||
| 20260905133946 | 24 | 0.0 | 0.0 | 0.00 | 0.00 | 0.00 | 48 | ||
| 20260905132938 | 23 | 0.0 | 0.0 | 0.00 | 0.00 | 0.00 | 43 | ||
| 20260905131938 | 24 | 0.0 | 0.0 | 0.00 | 0.00 | 0.00 | 43 | ||
| 20260905131015 | 24 | 0.0 | 0.0 | 0.00 | 0.00 | 0.00 | 42 | ||
| 20260905130944 | 24 | 0.0 | 0.0 | 0.00 | 0.00 | 0.00 | 42 | ||
| 20260905125938 | 25 | 0.0 | 0.0 | 0.00 | 0.00 | 0.00 | 41 | ||
| 20260905124938 | 25 | 0.0 | 0.0 | 0.00 | 0.00 | 0.00 | 38 | ||
| 20260905124017 | 25 | 0.0 | 0.0 | 0.00 | 0.00 | 0.00 | 43 | ||
| 20260905123938 | 25 | 0.0 | 0.0 | 0.00 | 0.00 | 0.00 | 43 | ||
| 20260905121938 | 24 | 0.0 | 0.0 | 0.00 | 0.00 | 0.00 | 40 | ||
| 20260905120938 | 24 | 0.0 | 0.0 | 0.00 | 0.00 | 0.00 | 43 | ||
| 20260905115938 | 23 | 0.0 | 0.0 | 0.00 | 0.00 | 0.00 | 42 | ||
| 20260905114938 | 24 | 0.0 | 0.0 | 0.00 | 0.00 | 0.00 | 42 | ||
| 20260905113938 | 25 | 0.0 | 0.0 | 0.00 | 0.00 | 0.00 | 37 | ||
| 20260905112938 | 24 | 0.0 | 0.0 | 0.00 | 0.00 | 0.00 | 42 | ||
| 20260905112033 | 24 | 0.0 | 0.0 | 0.00 | 0.00 | 0.00 | 44 | ||
| 20260905111954 | 24 | 0.0 | 0.0 | 0.00 | 0.00 | 0.00 | 44 | ||
| 20260905111015 | 23 | 0.0 | 0.0 | 0.00 | 0.00 | 0.00 | 43 | ||
| 20260905110938 | 23 | 0.0 | 0.0 | 0.00 | 0.00 | 0.00 | 43 | ||
| 20260905104949 | 22 | 0.0 | 0.0 | 0.00 | 0.00 | 0.00 | 47 | ||
| 20260905103938 | 24 | 0.0 | 0.0 | 0.00 | 0.00 | 0.00 | 41 | ||
| 20260905102959 | 23 | 0.0 | 0.0 | 0.00 | 0.00 | 0.00 | 42 | ||
| 20260905101941 | 23 | 0.0 | 0.0 | 0.00 | 0.00 | 0.00 | 40 | ||
| 20260905100940 | 22 | 0.0 | 0.0 | 0.00 | 0.00 | 0.00 | 43 | ||
| 20260905094938 | 23 | 0.0 | 0.0 | 0.00 | 0.00 | 0.00 | 39 | ||
| 20260905093943 | 25 | 0.0 | 0.0 | 0.00 | 0.00 | 0.00 | 38 | ||
| 20260905092946 | 23 | 0.0 | 0.0 | 0.00 | 0.00 | 0.00 | 35 | ||
| 20260905091940 | 26 | 0.0 | 0.0 | 0.00 | 0.00 | 0.00 | 30 | ||
| 20260905084945 | 24 | 0.0 | 0.0 | 0.00 | 0.00 | 0.00 | 34 | ||
| 20260905083940 | 23 | 0.0 | 0.0 | 0.00 | 0.00 | 0.00 | 32 | ||
| 20260905082944 | 23 | 0.0 | 0.0 | 0.00 | 0.00 | 0.00 | 31 | ||
| 20260905081941 | 23 | 0.0 | 0.0 | 0.00 | 0.00 | 0.00 | 28 | ||
| 20260905080944 | 23 | 0.0 | 0.0 | 0.00 | 0.00 | 0.00 | 30 | ||
| 20260905075940 | 23 | 0.0 | 0.0 | 0.00 | 0.00 | 0.00 | 30 | ||
| 20260905074942 | 22 | 0.0 | 0.0 | 0.00 | 0.00 | 0.00 | 31 | ||
| 20260905073941 | 22 | 0.0 | 0.0 | 0.00 | 0.00 | 0.00 | 30 | ||
| 20260905072950 | 21 | 0.0 | 0.0 | 0.00 | 0.00 | 0.00 | 34 | ||
| 20260905071940 | 20 | 0.0 | 0.0 | 0.00 | 0.00 | 0.00 | 32 | ||
| 20260905065941 | 17 | 0.0 | 0.0 | 0.00 | 0.00 | 0.00 | 47 | ||
| 20260905064945 | 15 | 0.0 | 0.0 | 0.00 | 0.00 | 0.00 | 67 | ||
| 20260905063942 | 11 | 0.0 | 0.0 | 0.00 | 0.00 | 0.00 | 87 | ||
| 20260905061947 | 8 | 0.0 | 0.0 | 0.00 | 0.00 | 0.00 | 86 | ||
| 20260905055943 | 6 | 0.0 | 0.0 | 0.00 | 0.00 | 0.00 | 86 | ||
| 20260905054944 | 6 | 0.0 | 0.0 | 0.00 | 0.00 | 0.00 | 86 | ||
| 20260905053943 | 6 | 0.0 | 0.0 | 0.00 | 0.00 | 0.00 | 85 | ||
| 20260905052940 | 5 | 0.0 | 0.0 | 0.00 | 0.00 | 0.00 | 85 | ||
| 20260905051941 | 5 | 0.0 | 0.0 | 0.00 | 0.00 | 0.00 | 85 | ||
| 20260905044941 | 4 | 0.0 | 0.0 | 0.00 | 0.00 | 0.00 | 85 | ||
| 20260905043942 | 4 | 0.0 | 0.0 | 0.00 | 0.00 | 0.00 | 85 | ||
| 20260905040948 | 4 | 0.0 | 0.0 | 0.00 | 0.00 | 0.00 | 85 |